Regional Weather Roundup
Issued by NWS

Home | Current Version | Previous Version | Graphics & Text | Print | Product List | Glossary On
Versions: 1 2 3 4 5 6 7 8 9 10 11 12 13 14 15 16 17 18 19 20 21 22 23 24 25 26 27 28 29 30 31 32 33 34 35 36 37 38 39 40 41 42 43 44 45 46 47 48 49 50
000
ASUS43 KLSX 302010
RWRMO

WEATHER SUMMARY FOR MISSOURI
NATIONAL WEATHER SERVICE SPRINGFIELD MO
300 PM CDT SAT JUL 30 2016

NOTE: "FAIR" INDICATES FEW OR NO CLOUDS BELOW 12,000 FEET WITH NO
       SIGNIFICANT WEATHER AND/OR OBSTRUCTIONS TO VISIBILITY.
       CURRENT SKY AND/OR WEATHER CONDITIONS ARE NOT AVAILABLE FOR
       CHILLICOTHE AND FARMINGTON.

MOZ001>031-035>038-043-044-053-054-302100-
...NORTHERN AND WESTERN MISSOURI...

CITY           SKY/WX    TMP DP  RH WIND       PRES   REMARKS
KANSAS CTY INT PTSUNNY   83  64  52 VRB3      30.02S
KANSAS C DTWN  MOSUNNY   88  63  43 NW5       30.00S
LEE`S SUMMIT   MOSUNNY   83  66  56 NW6       30.02S
ST JOSEPH      CLOUDY    78  63  59 SW5       30.00F
CHILLICOTHE      N/A     84  65  52 NE6       30.01F
KIRKSVILLE     CLOUDY    79  63  57 NW3       30.02F

$$
MOZ066>068-077>081-088>096-101>105-302100-
...SOUTHWEST MISSOURI...

CITY           SKY/WX    TMP DP  RH WIND       PRES   REMARKS
SPRINGFIELD    PTSUNNY   85  65  51 SW5       30.02S
JOPLIN         CLOUDY    86  69  56 CALM      30.00F HX  90
BRANSON        CLOUDY    82  70  65 W5        30.05S

$$
MOZ032>034-039>042-045>050-055>058-069>072-302100-
...CENTRAL MISSOURI...

CITY           SKY/WX    TMP DP  RH WIND       PRES   REMARKS
COLUMBIA       SUNNY     82  65  56 NW10      30.01F
JEFFERSON CITY SUNNY     84  66  54 VRB7      29.99S
ROLLA          MOSUNNY   83  67  58 W12       30.00F
SEDALIA        MOSUNNY   84  68  58 NW7       30.02F
WHITEMAN AFB   MOSUNNY   84  69  59 N6        29.99F
OSAGE BEACH    MOSUNNY   85  68  56 NW6       30.01F

$$
MOZ051-052-059>065-302100-
...EAST CENTRAL MISSOURI...

CITY           SKY/WX    TMP DP  RH WIND       PRES   REMARKS
ST LOUIS INTL  PTSUNNY   85  65  51 NW9       29.99F
SPIRIT OF STL  PTSUNNY   85  66  53 W10       29.97F
ST CHARLES     SUNNY     83  67  58 NW8       29.97F

$$
MOZ072>076-082>087-097>100-106>115-302100-
...SOUTH CENTRAL AND SOUTHEAST MISSOURI...

CITY           SKY/WX    TMP DP  RH WIND       PRES   REMARKS
CAPE GIRARDEAU SUNNY     85  70  60 W6        29.96F
FARMINGTON     MOSUNNY   85  67  54 VRB5      29.99F
POPLAR BLUFF   MOSUNNY   86  72  62 VRB3      29.96F HX  92
WEST PLAINS    PTSUNNY   88  66  48 W5        30.03F HX  90

$$




USA.gov is the U.S. government's official web portal to all federal, state and local government web resources and services.